International Skating Union - Official Site

ISU World Cup Calgary
November 13-15, 2015

Draw | Lap Times | Index | World Cup

Referee: Jan  BOLT  (NED)
Starter: Matthew  VRAA  (USA)
StartTime: EndTime: Air Temp: Ice Temp: Humidity:
16:51 18:05 16℃ -7.5℃ 31%
Result 5000m Men Division B
Rankings as of Nov 15 2015 4:47PM
Rank: No.: Name: Nation: Time: Behind: Points:
1 107 Peter  Michael NZL NZL 6:15.19200m - 18.84 - (18.8)
600m - 47.77 - (28.9)
1000m - 1:17.93 - (30.1)
1400m - 1:47.99 - (30.0)
1800m - 2:17.38 - (29.3)
2200m - 2:46.45 - (29.0)
2600m - 3:16.42 - (29.9)
3000m - 3:46.27 - (29.8)
3400m - 4:16.22 - (29.9)
3800m - 4:46.02 - (29.7)
4200m - 5:16.01 - (29.9)
4600m - 5:45.87 - (29.8)
5000m - 6:15.19 - (29.3)
32
2 8 Jordan  Belchos CAN CAN 6:17.16200m - 18.77 - (18.7)
600m - 47.64 - (28.8)
1000m - 1:16.56 - (28.9)
1400m - 1:45.70 - (29.1)
1800m - 2:14.88 - (29.1)
2200m - 2:44.47 - (29.5)
2600m - 3:14.31 - (29.8)
3000m - 3:44.51 - (30.1)
3400m - 4:14.74 - (30.2)
3800m - 4:45.38 - (30.6)
4200m - 5:16.35 - (30.9)
4600m - 5:47.06 - (30.7)
5000m - 6:17.16 - (30.1)
1.97 27
3 44 Moritz  Geisreiter GER GER 6:17.31200m - 19.09 - (19.0)
600m - 48.49 - (29.4)
1000m - 1:18.21 - (29.7)
1400m - 1:48.16 - (29.9)
1800m - 2:17.95 - (29.7)
2200m - 2:47.52 - (29.5)
2600m - 3:17.46 - (29.9)
3000m - 3:47.53 - (30.0)
3400m - 4:17.58 - (30.0)
3800m - 4:47.61 - (30.0)
4200m - 5:17.63 - (30.0)
4600m - 5:47.79 - (30.1)
5000m - 6:17.31 - (29.5)
2.12 23
4 36 Viktor-Hald  Thorup DEN DEN 6:22.37200m - 19.63 - (19.6)
600m - 49.19 - (29.5)
1000m - 1:18.09 - (28.9)
1400m - 1:47.64 - (29.5)
1800m - 2:17.27 - (29.6)
2200m - 2:46.89 - (29.6)
2600m - 3:16.64 - (29.7)
3000m - 3:46.75 - (30.1)
3400m - 4:16.91 - (30.1)
3800m - 4:47.28 - (30.3)
4200m - 5:18.28 - (31.0)
4600m - 5:50.13 - (31.8)
5000m - 6:22.37 - (32.2)
7.18 19
5 7 Vitaly  Mikhailov BLR BLR 6:22.52200m - 18.87 - (18.8)
600m - 48.32 - (29.4)
1000m - 1:17.75 - (29.4)
1400m - 1:47.79 - (30.0)
1800m - 2:17.68 - (29.8)
2200m - 2:47.96 - (30.2)
2600m - 3:18.08 - (30.1)
3000m - 3:48.21 - (30.1)
3400m - 4:18.57 - (30.3)
3800m - 4:49.18 - (30.6)
4200m - 5:20.00 - (30.8)
4600m - 5:51.18 - (31.1)
5000m - 6:22.52 - (31.3)
7.33 15
6 103 Sindre  Henriksen NOR NOR 6:24.33200m - 18.94 - (18.9)
600m - 48.09 - (29.1)
1000m - 1:17.86 - (29.7)
1400m - 1:47.76 - (29.9)
1800m - 2:17.86 - (30.1)
2200m - 2:48.21 - (30.3)
2600m - 3:18.78 - (30.5)
3000m - 3:49.42 - (30.6)
3400m - 4:20.17 - (30.7)
3800m - 4:50.70 - (30.5)
4200m - 5:21.44 - (30.7)
4600m - 5:52.52 - (31.0)
5000m - 6:24.33 - (31.8)
9.14 11
7 69 Dmitry  Babenko KAZ KAZ 6:24.43200m - 18.64 - (18.6)
600m - 48.24 - (29.6)
1000m - 1:18.51 - (30.2)
1400m - 1:48.78 - (30.2)
1800m - 2:18.87 - (30.0)
2200m - 2:48.93 - (30.0)
2600m - 3:19.07 - (30.1)
3000m - 3:49.33 - (30.2)
3400m - 4:19.68 - (30.3)
3800m - 4:50.10 - (30.4)
4200m - 5:20.76 - (30.6)
4600m - 5:52.18 - (31.4)
5000m - 6:24.43 - (32.2)
9.24 9
8 24 Stefan  Waples CAN CAN 6:24.61200m - 19.20 - (19.1)
600m - 48.53 - (29.3)
1000m - 1:18.35 - (29.8)
1400m - 1:48.50 - (30.1)
1800m - 2:18.62 - (30.1)
2200m - 2:48.99 - (30.3)
2600m - 3:19.21 - (30.2)
3000m - 3:49.58 - (30.3)
3400m - 4:20.15 - (30.5)
3800m - 4:51.03 - (30.8)
4200m - 5:21.99 - (30.9)
4600m - 5:53.22 - (31.2)
5000m - 6:24.61 - (31.3)
9.42 7
9 106 Reyon  Kay NZL NZL 6:25.03200m - 19.43 - (19.4)
600m - 49.58 - (30.1)
1000m - 1:20.00 - (30.4)
1400m - 1:50.45 - (30.4)
1800m - 2:20.92 - (30.4)
2200m - 2:51.22 - (30.3)
2600m - 3:21.47 - (30.2)
3000m - 3:51.72 - (30.2)
3400m - 4:22.00 - (30.2)
3800m - 4:52.38 - (30.3)
4200m - 5:23.00 - (30.6)
4600m - 5:53.41 - (30.4)
5000m - 6:25.03 - (31.6)
9.84 6
10 119 Sergey  Gryaztsov RUS RUS 6:27.39200m - 18.56 - (18.5)
600m - 47.51 - (28.9)
1000m - 1:17.29 - (29.7)
1400m - 1:47.14 - (29.8)
1800m - 2:17.05 - (29.9)
2200m - 2:47.12 - (30.0)
2600m - 3:17.44 - (30.3)
3000m - 3:47.99 - (30.5)
3400m - 4:18.87 - (30.8)
3800m - 4:50.03 - (31.1)
4200m - 5:21.93 - (31.9)
4600m - 5:54.37 - (32.4)
5000m - 6:27.39 - (33.0)
12.20 5
11 30 Longjiang  Sun CHN CHN 6:27.99200m - 19.35 - (19.3)
600m - 50.17 - (30.8)
1000m - 1:20.53 - (30.3)
1400m - 1:50.89 - (30.3)
1800m - 2:21.28 - (30.3)
2200m - 2:51.62 - (30.3)
2600m - 3:21.95 - (30.3)
3000m - 3:52.07 - (30.1)
3400m - 4:22.44 - (30.3)
3800m - 4:52.86 - (30.4)
4200m - 5:24.00 - (31.1)
4600m - 5:55.40 - (31.3)
5000m - 6:27.99 - (32.5)
12.80 4
12 112 Konrad  Niedzwiedzki POL POL 6:28.21200m - 19.06 - (19.0)
600m - 48.60 - (29.5)
1000m - 1:18.48 - (29.8)
1400m - 1:48.75 - (30.2)
1800m - 2:19.45 - (30.6)
2200m - 2:50.28 - (30.8)
2600m - 3:20.76 - (30.4)
3000m - 3:51.31 - (30.5)
3400m - 4:22.02 - (30.7)
3800m - 4:52.96 - (30.9)
4200m - 5:24.25 - (31.2)
4600m - 5:56.01 - (31.7)
5000m - 6:28.21 - (32.1)
13.02 3
13 15 Bejamin  Donnelly CAN CAN 6:28.30 (2) 200m - 19.64 - (19.6)
600m - 50.12 - (30.4)
1000m - 1:21.35 - (31.2)
1400m - 1:51.75 - (30.4)
1800m - 2:22.22 - (30.4)
2200m - 2:52.58 - (30.3)
2600m - 3:23.26 - (30.6)
3000m - 3:53.89 - (30.6)
3400m - 4:24.72 - (30.8)
3800m - 4:55.25 - (30.5)
4200m - 5:26.19 - (30.9)
4600m - 5:57.23 - (31.0)
5000m - 6:28.30 - (31.0)
13.11 2
14 65 Ryosuke  Tsuchiya JPN JPN 6:28.30 (6) 200m - 19.41 - (19.4)
600m - 49.82 - (30.4)
1000m - 1:20.35 - (30.5)
1400m - 1:50.73 - (30.3)
1800m - 2:21.05 - (30.3)
2200m - 2:51.59 - (30.5)
2600m - 3:22.13 - (30.5)
3000m - 3:52.70 - (30.5)
3400m - 4:23.10 - (30.4)
3800m - 4:53.60 - (30.5)
4200m - 5:24.37 - (30.7)
4600m - 5:55.83 - (31.4)
5000m - 6:28.30 - (32.4)
13.11 1
15 55 Nicola  Tumolero ITA ITA 6:30.31200m - 19.60 - (19.6)
600m - 50.29 - (30.6)
1000m - 1:22.12 - (31.8)
1400m - 1:53.21 - (31.0)
1800m - 2:23.80 - (30.5)
2200m - 2:54.80 - (31.0)
2600m - 3:25.45 - (30.6)
3000m - 3:56.02 - (30.5)
3400m - 4:26.56 - (30.5)
3800m - 4:57.55 - (30.9)
4200m - 5:28.78 - (31.2)
4600m - 6:00.07 - (31.2)
5000m - 6:30.31 - (30.2)
15.12 0
16 130 Livio  Wenger SUI SUI 6:30.65200m - 19.19 - (19.1)
600m - 50.42 - (31.2)
1000m - 1:22.64 - (32.2)
1400m - 1:53.87 - (31.2)
1800m - 2:24.73 - (30.8)
2200m - 2:55.35 - (30.6)
2600m - 3:26.49 - (31.1)
3000m - 3:56.78 - (30.2)
3400m - 4:26.95 - (30.1)
3800m - 4:57.23 - (30.2)
4200m - 5:27.95 - (30.7)
4600m - 5:59.31 - (31.3)
5000m - 6:30.65 - (31.3)
15.46 0
17 66 Shane  Williamson JPN JPN 6:32.48200m - 18.44 - (18.4)
600m - 48.62 - (30.1)
1000m - 1:18.68 - (30.0)
1400m - 1:49.25 - (30.5)
1800m - 2:20.20 - (30.9)
2200m - 2:51.39 - (31.1)
2600m - 3:22.60 - (31.2)
3000m - 3:54.12 - (31.5)
3400m - 4:25.70 - (31.5)
3800m - 4:57.22 - (31.5)
4200m - 5:28.43 - (31.2)
4600m - 6:00.04 - (31.6)
5000m - 6:32.48 - (32.4)
17.29 0
18 3 Linus  Heidegger AUT AUT 6:33.62200m - 19.33 - (19.3)
600m - 49.34 - (30.0)
1000m - 1:19.03 - (29.6)
1400m - 1:49.02 - (29.9)
1800m - 2:19.28 - (30.2)
2200m - 2:49.74 - (30.4)
2600m - 3:20.39 - (30.6)
3000m - 3:51.43 - (31.0)
3400m - 4:22.80 - (31.3)
3800m - 4:54.73 - (31.9)
4200m - 5:27.14 - (32.4)
4600m - 5:59.85 - (32.7)
5000m - 6:33.62 - (33.7)
18.43 0
19 75 Hyung-Joon  Joo KOR KOR 6:33.74200m - 19.33 - (19.3)
600m - 49.46 - (30.1)
1000m - 1:20.14 - (30.6)
1400m - 1:50.54 - (30.4)
1800m - 2:21.22 - (30.6)
2200m - 2:51.87 - (30.6)
2600m - 3:22.76 - (30.8)
3000m - 3:53.87 - (31.1)
3400m - 4:25.39 - (31.5)
3800m - 4:57.06 - (31.6)
4200m - 5:28.85 - (31.7)
4600m - 6:00.96 - (32.1)
5000m - 6:33.74 - (32.7)
18.55 0
20 76 Cheol-Min  Kim KOR KOR 6:34.69200m - 19.47 - (19.4)
600m - 49.86 - (30.3)
1000m - 1:20.04 - (30.1)
1400m - 1:50.76 - (30.7)
1800m - 2:21.53 - (30.7)
2200m - 2:52.56 - (31.0)
2600m - 3:23.62 - (31.0)
3000m - 3:55.28 - (31.6)
3400m - 4:26.90 - (31.6)
3800m - 4:59.08 - (32.1)
4200m - 5:31.43 - (32.3)
4600m - 6:03.25 - (31.8)
5000m - 6:34.69 - (31.4)
19.50 0
21 117 Adrian  Wielgat POL POL 6:36.44200m - 19.47 - (19.4)
600m - 49.57 - (30.1)
1000m - 1:20.20 - (30.6)
1400m - 1:50.80 - (30.5)
1800m - 2:21.53 - (30.7)
2200m - 2:52.49 - (30.9)
2600m - 3:23.71 - (31.2)
3000m - 3:54.78 - (31.0)
3400m - 4:26.54 - (31.7)
3800m - 4:58.22 - (31.6)
4200m - 5:30.13 - (31.9)
4600m - 6:02.94 - (32.8)
5000m - 6:36.44 - (33.5)
21.25 0
22 138 Ian  Quinn USA USA 6:36.77200m - 20.16 - (20.1)
600m - 50.06 - (29.9)
1000m - 1:20.43 - (30.3)
1400m - 1:51.18 - (30.7)
1800m - 2:22.15 - (30.9)
2200m - 2:53.29 - (31.1)
2600m - 3:24.74 - (31.4)
3000m - 3:56.39 - (31.6)
3400m - 4:28.25 - (31.8)
3800m - 4:59.97 - (31.7)
4200m - 5:32.12 - (32.1)
4600m - 6:04.40 - (32.2)
5000m - 6:36.77 - (32.3)
21.58 0
23 68 Aoi  Yokoyama JPN JPN 6:37.38200m - 19.55 - (19.5)
600m - 49.45 - (29.9)
1000m - 1:19.35 - (29.8)
1400m - 1:49.87 - (30.5)
1800m - 2:20.85 - (30.9)
2200m - 2:52.13 - (31.2)
2600m - 3:23.71 - (31.5)
3000m - 3:55.90 - (32.1)
3400m - 4:27.86 - (31.9)
3800m - 5:00.47 - (32.6)
4200m - 5:32.54 - (32.0)
4600m - 6:04.67 - (32.1)
5000m - 6:37.38 - (32.7)
22.19 0
24 18 Antoine  Gélinas-Beaulieu CAN CAN 6:38.07200m - 19.79 - (19.7)
600m - 50.24 - (50.2)
1000m - 1:20.75 - (80.7)
1400m - 1:51.74 - (30.9)
1800m - 2:23.08 - (31.3)
2200m - 2:54.37 - (31.2)
2600m - 3:25.49 - (31.1)
3000m - 3:56.58 - (31.0)
3400m - 4:27.99 - (31.4)
3800m - 4:59.99 - (32.0)
4200m - 5:32.54 - (32.5)
4600m - 6:05.10 - (32.5)
5000m - 6:38.07 - (32.9)
22.88 0
25 37 Inigo  Vidondo ESP ESP 6:43.71200m - 20.30 - (20.3)
600m - 51.33 - (31.0)
1000m - 1:21.44 - (30.1)
1400m - 1:51.76 - (30.3)
1800m - 2:22.18 - (30.4)
2200m - 2:52.94 - (30.7)
2600m - 3:23.75 - (30.8)
3000m - 3:54.95 - (31.1)
3400m - 4:26.85 - (31.9)
3800m - 4:59.74 - (32.8)
4200m - 5:33.59 - (33.8)
4600m - 6:08.08 - (34.4)
5000m - 6:43.71 - (35.6)
28.52 0